[[{"header":{"parameterUnit":"m.s-1","parameterCategory":1,"la1":30.2991,"la2":30.254,"lo1":-89.0895,"lo2":-89.0444,"dy":0.0017,"dx":0.0017,"nx":28,"ny":28,"refTime":"2025-08-17T03:00:00:Z","depth":0,"parameterNumber":2,"parameterNumberName":"U-component_of_WINDS"},"data":[0,0,0,0,0,0,0,0,0,0,0,0,0,0,0,0,0,0,0,0,0,0,0,0,0,0,0,0,0,0,0,0,0,0,0,0,0,0,0,0,0,0,0,0,0,0,0,0,0,0,0,0,0,0,0,0,0,0,2.0881,2.0881,0,2.0907,2.0907,2.0907,2.0879,2.0878,2.0877,2.0876,2.0903,2.0904,2.0906,0,0,0,0,0,0,0,0,0,0,0,0,0,2.0806,2.0807,2.0881,2.0881,2.0882,2.0907,2.0907,2.0908,2.0879,2.0878,2.0877,2.0875,2.0902,2.0904,2.0906,0,0,0,0,0,0,0,0,0,0,0,0,0,2.0836,2.0808,2.0881,2.0871,2.087,2.0907,2.0907,2.0908,2.0879,2.0878,2.0876,2.0875,2.0901,2.0904,2.0906,2.0955,0,0,2.0914,2.0915,0,0,0,0,0,0,0,0,2.0834,2.0839,2.0872,2.0871,2.0871,2.0888,2.089,2.0924,2.088,2.0876,2.0876,2.0874,2.0899,2.0902,2.091,2.0956,2.0957,2.0915,2.0916,2.0917,2.0918,0,0,0,0,0,0,0,2.0832,2.0837,2.0891,2.0872,2.0872,2.0864,2.0867,2.0897,2.0896,2.0876,2.0874,2.0877,2.0898,2.0908,2.0911,2.0958,2.0914,2.0917,2.0918,2.0919,2.1042,2.1043,0,0,0,0,0,0,2.0831,2.0836,2.089,2.0892,2.0848,2.0867,2.087,2.0884,2.0896,2.0896,2.0879,2.0876,2.0904,2.0908,2.0911,2.0966,2.0917,2.092,2.0921,2.104,2.1042,2.1044,0,0,0,0,0,0,2.083,2.0837,2.0889,2.0863,2.087,2.087,2.0886,2.0885,2.0895,2.0898,2.0898,2.0888,2.0903,2.0908,2.0944,2.0967,2.0921,2.0923,2.1038,2.104,2.1043,2.1078,0,0,0,0,0,0,2.0828,2.0836,2.0855,2.0864,2.0871,2.0922,2.0888,2.0887,2.0899,2.0896,2.0907,2.0907,2.0902,2.094,2.0946,2.097,2.0925,2.1036,2.1039,2.1042,2.1075,2.1082,2.1088,0,0,0,0,0,2.0825,2.0865,2.0856,2.0863,2.0895,2.0923,2.0927,2.092,2.0901,2.092,2.0921,2.0907,2.0964,2.0944,2.0951,2.0975,2.1034,2.1038,2.1042,2.1072,2.108,2.1087,0,0,0,0,0,0,2.086,2.0866,2.0856,2.09,2.0911,2.0918,2.0941,2.093,2.0947,2.0943,2.0934,2.0936,2.0974,2.0979,2.0956,2.1021,2.0996,2.1001,2.1017,2.1024,2.1031,2.1028,2.0927,0,0,0,0,0,2.0872,2.0895,2.0899,2.0937,2.0943,2.0941,2.0954,2.0947,2.0958,2.0963,2.0967,2.0979,2.0999,2.1012,2.1031,2.1076,2.1077,2.1096,2.1103,2.1108,2.1112,2.1133,2.1141,2.1056,2.1056,2.1056,0,0,2.0898,2.0905,2.092,2.0944,2.0952,2.0974,2.0946,2.0972,2.0988,2.0967,2.1,2.1004,2.1016,2.1055,2.1073,2.106,2.1135,2.1113,2.1117,2.1118,2.1138,2.1146,2.1153,2.1059,2.1058,2.1058,0,0,2.0957,2.0965,2.0996,2.1004,2.1016,2.1014,2.1022,2.103,2.1031,2.1064,2.1048,2.1068,2.1103,2.1111,2.112,2.118,2.1166,2.1187,2.1219,2.1239,2.1246,2.1252,2.127,2.1278,2.1191,2.1191,2.1191,0,2.0988,2.1022,2.1014,2.104,2.105,2.1032,2.1062,2.1071,2.1088,2.1095,2.1081,2.1123,2.113,2.117,2.1184,2.1193,2.12,2.1185,2.1246,2.1251,2.1257,2.1274,2.1282,2.1193,2.1193,2.1193,2.1193,0,2.1058,2.1082,2.1105,2.1121,2.1134,2.1163,2.1158,2.1172,2.1165,2.1164,2.1197,2.1204,2.1223,2.1232,2.1226,2.1271,2.1262,2.1247,2.1221,2.1267,2.1283,2.129,2.1197,2.1196,2.1195,2.1195,0,0,2.1139,2.1149,2.1158,2.1163,2.1174,2.1192,2.1218,2.1236,2.1247,2.126,2.1281,2.131,2.1296,2.1306,2.13,2.1318,2.1361,2.13,2.13,2.1309,2.1408,2.1418,2.1426,2.1353,2.1354,2.1356,2.1406,0,2.1196,2.1242,2.1234,2.1278,2.1298,2.128,2.1303,2.1312,2.1312,2.1328,2.1328,2.1348,2.1329,2.1334,2.1352,2.1352,2.1381,2.1349,2.1371,2.1372,2.1366,2.1435,2.1446,2.1493,2.1413,2.1414,2.1415,0,2.1268,2.1282,2.1327,2.1332,2.134,2.1361,2.1375,2.1392,2.1401,2.1399,2.1409,2.1399,2.1425,2.1399,2.1433,2.1412,2.142,2.1422,2.1423,2.1423,2.1395,2.1434,2.1508,2.1515,2.1425,2.1425,2.1424,0,2.1319,2.1349,2.1379,2.1385,2.1392,2.1407,2.1411,2.1418,2.1428,2.1441,2.1447,2.1463,2.1471,2.1483,2.1477,2.1459,2.1511,2.1486,2.1509,2.1509,2.1519,2.1518,2.1593,2.1529,2.1529,2.1528,2.1528,0,2.1382,2.141,2.1402,2.142,2.145,2.1441,2.1471,2.1473,2.1479,2.1496,2.1483,2.15,2.1492,2.1508,2.1504,2.1531,2.1535,2.1534,2.1532,2.1534,2.1533,2.1538,2.1533,2.153,2.153,2.153,2.1529,0,2.1443,2.1439,2.147,2.1474,2.1476,2.1497,2.15,2.1517,2.1515,2.1538,2.1542,2.154,2.1558,2.1553,2.1574,2.1571,2.1604,2.1599,2.1601,2.1598,2.1621,2.1618,2.1699,2.1709,2.164,2.1641,2.1642,0,2.1482,2.1503,2.1508,2.1519,2.1523,2.1541,2.155,2.1542,2.1553,2.1563,2.1578,2.1594,2.1607,2.1636,2.1636,2.1651,2.1645,2.1672,2.1647,2.1647,2.1642,2.164,2.1641,2.1677,2.1678,2.1678,2.1679,0,2.1551,2.1548,2.1562,2.1575,2.1587,2.1597,2.1606,2.1615,2.1608,2.162,2.1638,2.1648,2.1667,2.1683,2.1696,2.1699,2.1687,2.1687,2.1692,2.1693,2.1692,2.169,2.1612,2.1685,2.1684,2.1684,2.1683,2.1683,2.1601,2.1617,2.1622,2.1638,2.1644,2.1652,2.1667,2.1666,2.1681,2.1695,2.169,2.1709,2.1716,2.1732,2.1737,2.1751,2.1741,2.175,2.1752,2.1753,2.1755,2.1692,2.1754,2.1754,2.1754,2.1754,2.1754,0,2.1666,2.1669,2.1683,2.1695,2.1707,2.1695,2.1703,2.1714,2.1731,2.1738,2.175,2.1769,2.1784,2.1785,2.1798,2.181,2.1804,2.1813,2.1811,2.1812,2.1765,2.1757,2.1817,2.1817,2.1817,2.1817,2.1817,2.1817,2.1702,2.1728,2.1725,2.1752,2.1755,2.1773,2.1778,2.1785,2.179,2.1812,2.1824,2.1824,2.1828,2.1841,2.1854,2.1853,2.1858,2.1868,2.1866,2.1822,2.1815,2.1809,2.1802,2.187,2.187,2.1911,2.1911,2.1912]},{"header":{"parameterUnit":"m.s-1","parameterCategory":1,"la1":30.2991,"la2":30.254,"lo1":-89.0895,"lo2":-89.0444,"dy":0.0017,"dx":0.0017,"nx":28,"ny":28,"refTime":"2025-08-17T03:00:00:Z","depth":0,"parameterNumber":3,"parameterNumberName":"V-component_of_WINDS"},"data":[0,0,0,0,0,0,0,0,0,0,0,0,0,0,0,0,0,0,0,0,0,0,0,0,0,0,0,0,0,0,0,0,0,0,0,0,0,0,0,0,0,0,0,0,0,0,0,0,0,0,0,0,0,0,0,0,0,0,3.4344,3.4345,0,3.444,3.4441,3.4442,3.4485,3.4485,3.4484,3.4484,3.4573,3.4575,3.4578,0,0,0,0,0,0,0,0,0,0,0,0,0,3.4185,3.4187,3.4344,3.4345,3.4346,3.444,3.4441,3.4442,3.4485,3.4485,3.4484,3.4484,3.4572,3.4575,3.4578,0,0,0,0,0,0,0,0,0,0,0,0,0,3.4264,3.4188,3.4344,3.4379,3.4383,3.444,3.4441,3.4443,3.4485,3.4485,3.4484,3.4484,3.4571,3.4575,3.4578,3.4604,0,0,3.459,3.4591,0,0,0,0,0,0,0,0,3.426,3.427,3.4373,3.4377,3.4381,3.445,3.4418,3.4497,3.4485,3.4446,3.4484,3.4484,3.4532,3.4539,3.4557,3.4608,3.4612,3.459,3.4592,3.4594,3.4595,0,0,0,0,0,0,0,3.4254,3.4266,3.4382,3.4374,3.4379,3.4386,3.4397,3.4433,3.4488,3.4449,3.4453,3.4464,3.4534,3.4553,3.4559,3.4613,3.459,3.4593,3.4595,3.4597,3.4686,3.4686,0,0,0,0,0,0,3.4244,3.4261,3.4379,3.4385,3.4319,3.4389,3.4401,3.4428,3.4488,3.4497,3.4464,3.4465,3.4547,3.4555,3.4562,3.4594,3.4594,3.4597,3.4599,3.4686,3.4686,3.4686,0,0,0,0,0,0,3.4241,3.4255,3.4375,3.4324,3.434,3.4392,3.4422,3.443,3.445,3.4499,3.4508,3.4474,3.4547,3.4557,3.4593,3.4598,3.4599,3.4602,3.4686,3.4686,3.4686,3.4659,0,0,0,0,0,0,3.4236,3.4253,3.4267,3.4324,3.4342,3.4408,3.4422,3.4432,3.4457,3.446,3.4511,3.4519,3.4548,3.4587,3.4597,3.4603,3.4605,3.4685,3.4686,3.4686,3.466,3.4659,3.4657,0,0,0,0,0,3.423,3.4254,3.4267,3.4281,3.4361,3.4408,3.4418,3.4453,3.4457,3.4469,3.45,3.4518,3.4596,3.4591,3.4602,3.4609,3.4685,3.4686,3.4686,3.4661,3.4659,3.4657,0,0,0,0,0,0,3.4194,3.4263,3.4278,3.4322,3.4359,3.4415,3.4432,3.4451,3.4486,3.4487,3.4525,3.4536,3.4568,3.4592,3.4585,3.4634,3.4642,3.4644,3.4618,3.4617,3.4616,3.4609,3.4608,0,0,0,0,0,3.4191,3.4228,3.4284,3.4317,3.4335,3.438,3.4402,3.4425,3.4464,3.4479,3.4513,3.4547,3.4579,3.4599,3.4632,3.4663,3.4673,3.4673,3.4671,3.467,3.4672,3.4687,3.4687,3.4687,3.4687,3.4687,0,0,3.4186,3.4228,3.4248,3.4311,3.4342,3.4375,3.4393,3.4427,3.445,3.4483,3.452,3.4545,3.4585,3.4619,3.4635,3.4639,3.4673,3.4671,3.4669,3.4672,3.4687,3.4687,3.4687,3.4688,3.4688,3.4688,0,0,3.4192,3.4229,3.426,3.429,3.4339,3.4368,3.4374,3.4427,3.4446,3.4484,3.4508,3.4534,3.4589,3.4616,3.4637,3.4648,3.4664,3.4657,3.465,3.4664,3.4664,3.4664,3.4666,3.4667,3.4658,3.4658,3.4658,0,3.4179,3.4233,3.4272,3.4304,3.4329,3.4362,3.439,3.4417,3.4472,3.4486,3.4491,3.4559,3.4588,3.4626,3.4629,3.4645,3.4651,3.4652,3.4662,3.4662,3.4663,3.4665,3.4666,3.4657,3.4657,3.4657,3.4657,0,3.4212,3.4248,3.4265,3.432,3.4346,3.4376,3.4416,3.4437,3.4456,3.4483,3.4518,3.4554,3.4593,3.4604,3.4623,3.4643,3.4644,3.4655,3.4663,3.4661,3.4663,3.4664,3.4655,3.4656,3.4656,3.4656,0,0,3.4201,3.4275,3.428,3.4304,3.4357,3.4384,3.4412,3.4453,3.4469,3.4504,3.4526,3.457,3.458,3.4603,3.4624,3.4637,3.464,3.4645,3.4647,3.4642,3.4661,3.4653,3.4654,3.4651,3.4651,3.4652,3.4658,0,3.4214,3.4272,3.4305,3.4347,3.4378,3.4407,3.4432,3.4464,3.4489,3.4516,3.4542,3.4572,3.4583,3.4597,3.461,3.4637,3.4644,3.4637,3.4669,3.467,3.4659,3.4656,3.4648,3.4652,3.4659,3.4659,3.4659,0,3.4238,3.4274,3.432,3.4366,3.4381,3.4403,3.444,3.4466,3.4502,3.4518,3.4543,3.4564,3.4591,3.4596,3.4631,3.4626,3.464,3.4655,3.4655,3.466,3.4665,3.4658,3.4654,3.4654,3.4662,3.4661,3.4661,0,3.4223,3.4283,3.4317,3.4336,3.4392,3.4406,3.4429,3.4465,3.4486,3.4517,3.453,3.4562,3.458,3.4603,3.4631,3.4632,3.4662,3.467,3.4674,3.4673,3.4679,3.4679,3.4676,3.4689,3.4689,3.4689,3.4689,0,3.4234,3.426,3.4311,3.4332,3.436,3.4396,3.4421,3.4446,3.4477,3.45,3.4526,3.4546,3.4582,3.4606,3.4627,3.4651,3.4659,3.4671,3.4676,3.4669,3.4667,3.4679,3.4679,3.469,3.4689,3.4689,3.4689,0,3.4223,3.4259,3.4297,3.4346,3.4359,3.4377,3.4417,3.4436,3.4461,3.4489,3.4498,3.4536,3.4564,3.4594,3.4633,3.4647,3.467,3.4678,3.4659,3.4662,3.4663,3.4662,3.4668,3.467,3.4682,3.4682,3.4682,0,3.4227,3.4248,3.4299,3.4318,3.4341,3.437,3.4391,3.4425,3.4445,3.4485,3.4498,3.4529,3.4556,3.4599,3.4628,3.4656,3.4664,3.4664,3.4669,3.4659,3.4663,3.4661,3.4662,3.4663,3.4663,3.4662,3.4662,0,3.4231,3.4247,3.4278,3.4314,3.4339,3.4369,3.4399,3.4411,3.445,3.447,3.4501,3.4522,3.456,3.4589,3.4621,3.464,3.4656,3.466,3.4663,3.4655,3.4643,3.4648,3.4654,3.466,3.4661,3.4661,3.4661,3.4661,3.4227,3.4246,3.4284,3.4316,3.4342,3.4369,3.4389,3.4416,3.4443,3.4479,3.4496,3.4525,3.4556,3.46,3.4619,3.464,3.4645,3.4648,3.4649,3.4649,3.4647,3.4639,3.4646,3.4646,3.4646,3.4646,3.4646,0,3.423,3.4256,3.4285,3.4327,3.4351,3.4366,3.4399,3.4417,3.4444,3.4473,3.4498,3.4531,3.4558,3.4588,3.4616,3.4627,3.4635,3.4633,3.4633,3.4636,3.4641,3.4636,3.4626,3.4626,3.4626,3.4626,3.4626,3.4626,3.4235,3.4267,3.4286,3.4328,3.4353,3.4384,3.4401,3.4424,3.4447,3.4483,3.4507,3.4527,3.4555,3.4585,3.4609,3.4617,3.4625,3.4621,3.4631,3.4635,3.4636,3.4638,3.4633,3.4623,3.4623,3.4624,3.4624,3.4624]}]]